STARLINK-36674, 67661

Orbit data source: Space-Track

STARLINK-36674, 67661 is a payload satellite owned by SpaceX/Seattle (US) in SSO that was launched on Mon, 02 Feb 2026 UTC via an FALCON 9 launch vehicle from the Air Force Western Test Range (AFWTR). Payload-class satellites include a variety of spacecraft equipped with specific instruments for various scientific and technological missions. These include communications satellites like Starlink; space stations such as the ISS; scientific satellites like the Hubble; Earth observation satellites from companies like Planet Labs, Umbra, and HawkEye 360; GPS; miniature CubeSats for education and research; and military/defense satellites.

Loading next visibility...
Identifier
67661, 2026-022P
Orbit
SSO
Country
Flag of USUS
Related business
Manufacturer
SpaceX/Seattle
Mission
Operational spacecraft
Bus & Motor
STARLINK V2MO, Unknown motor
Mass
575 kg wet, ~530 kg dry
Launch date (UTC)
2026-02-02 (2 months ago)
Launch vehicle
FALCON 9
Launch site
Air Force Western Test Range (AFWTR)
Object type
Payload
Rocket body
Debris
Shape & HBR
Unknown shape, 17.7 m
Radar Cross Section
RCS unknown

Expand to show TLE details & history
Last TLE update: 16 hours ago

TLE from 16 hours ago
0 STARLINK-36674
1 67661U 26022P   26094.97388792  .00036712  00000-0  11332-2 0  9993
2 67661  97.2833 128.9819 0001813  85.7127 274.4322 15.33466629  9605
Epoch: 2026-04-04T23:22Z
TLE epoch observation values (Epoch: 2026-04-04T23:22:23.916Z)
Latitude
-0.0001°
Longitude
-54.90371°
Altitude
468.495 km
Speed
7.632 km/s
True Right ascension
08h 35m 55s
True Declination
0° 00' 00"
Sunlit
Object was in full shadow at epoch
Visualization orbit readout
Latitude
Unknown
Longitude
Unknown
Altitude
Unknown
Speed
Unknown
Apparent Right ascension
Unknown
Apparent Declination
Unknown
Sunlit
N/A
Visualization observer readout
Local Sidereal Time
20:58:11
Azimuth
Unknown
Elevation
Unknown
Doppler factor
Unknown
Orbital elements
Apogee altitude
463.662 km
Perigee altitude
461.181 km
Semi-major axis
6,840.558 km
Eccentricity
0.00018
Inclination
97.2833°
RAAN
128.9819°
Arg. of periapsis
85.7127°
True anomaly
274.41149°
Mean anomaly
274.4322°
Eccentric anomaly
274.42184°
Mean motion
3.83624 °/min
Orbital period
93.84 mins
BSTAR
0.0011332
Loading maneuver chart data...
Computing Atmospheric mass density...
Loading historical data...
Loading historical data...
Loading historical data...
Loading historical data...
Loading historical data...
Loading historical data...
Loading historical data...

Documentation

Showing up to 5 results
|